Ionia, MI

2:11 PM EDT on May 28, 2017 (GMT -0400)
Ionia

Weather History for KY70 - July, 2013

Change the Weather History Date:

Tuesday, July 16, 2013

  Actual Average (KGRR) Record (KGRR)
Temperature  
Mean Temperature 84 °F -  
Max Temperature 93 °F 84 °F 97 °F (1894)
Min Temperature 74 °F 60 °F 42 °F (1945)
Cooling Degree Days 18    
Growing Degree Days 34 (Base 50)    
Moisture  
Dew Point 72 °F    
Average Humidity 68    
Maximum Humidity 93    
Minimum Humidity 45    
Precipitation  
Precipitation 0.00 in - - ()
Sea Level Pressure  
Sea Level Pressure 30.29 in    
Wind  
Wind Speed 5 mph (WSW)    
Max Wind Speed 14 mph    
Max Gust Speed 17 mph    
Visibility 10 miles    
Events      
Averages and records for this station are not official NWS values.
T = Trace of Precipitation, MM = Missing Value Source: NWS Daily Summary

Daily Weather History Graph

Daily Weather History Graph

Search for Another Location

Airport or City:

Trip Planner

Search our weather history database for the weather conditions in past years. The results will help you decide how hot, cold, wet, or windy it might be!

Date:

Astronomy

Jul. 16, 2013 Rise Set
Actual Time 6:15 AM EDT 9:16 PM EDT
Civil Twilight 5:42 AM EDT 9:50 PM EDT
Nautical Twilight 4:58 AM EDT 10:33 PM EDT
Astronomical Twilight 4:07 AM EDT 11:24 PM EDT
Moon 2:53 PM EDT (7/16) 12:49 AM EDT (7/16)
Length of Visible Light 16h 08m
Length of Day
15h 00m
First Quarter, 56% of the Moon is Illuminated
Jul 16
First Quarter
Jul 22
Full
Jul 29
Last Quarter
Aug 6
New
Aug 14
First Quarter

Hourly Weather History & Observations

Time (EDT) Temp. Heat Index Dew Point Humidity Pressure Visibility Wind Dir Wind Speed Gust Speed Precip Events Conditions
12:14 AM 77.9 °F - 72.1 °F 82% 30.26 in 10.0 mi SSW 5.8 mph - N/A   Mostly Cloudy
12:34 AM 76.1 °F - 72.3 °F 88% 30.27 in 10.0 mi Calm Calm - N/A   Scattered Clouds
12:54 AM 77.9 °F - 72.3 °F 83% 30.27 in 10.0 mi SSW 5.8 mph - N/A   Mostly Cloudy
1:14 AM 78.4 °F - 72.1 °F 81% 30.27 in 10.0 mi South 5.8 mph - N/A   Mostly Cloudy
1:34 AM 75.9 °F - 71.8 °F 87% 30.27 in 10.0 mi SSE 5.8 mph - N/A   Scattered Clouds
1:54 AM 79.2 °F - 71.6 °F 78% 30.27 in 10.0 mi South 4.6 mph - N/A   Clear
2:14 AM 78.3 °F - 71.8 °F 80% 30.28 in 10.0 mi Calm Calm - N/A   Scattered Clouds
2:34 AM 75.2 °F - 72.1 °F 90% 30.28 in 10.0 mi Calm Calm - N/A   Mostly Cloudy
2:54 AM 76.5 °F - 72.9 °F 89% 30.28 in 10.0 mi South 3.5 mph - N/A   Scattered Clouds
3:14 AM 74.7 °F - 72.5 °F 93% 30.28 in 10.0 mi Calm Calm - N/A   Clear
3:34 AM 76.1 °F - 72.9 °F 90% 30.28 in 10.0 mi Calm Calm - N/A   Clear
3:54 AM 76.1 °F - 72.7 °F 89% 30.28 in 10.0 mi West 4.6 mph - N/A   Scattered Clouds
4:14 AM 75.9 °F - 72.7 °F 90% 30.28 in 10.0 mi WNW 3.5 mph - N/A   Mostly Cloudy
4:34 AM 76.1 °F - 72.7 °F 89% 30.28 in 10.0 mi West 3.5 mph - N/A   Mostly Cloudy
4:54 AM 76.1 °F - 72.9 °F 90% 30.28 in 10.0 mi West 3.5 mph - N/A   Mostly Cloudy
5:14 AM 76.1 °F - 73.0 °F 90% 30.29 in 10.0 mi Calm Calm - N/A   Overcast
5:34 AM 75.7 °F - 72.9 °F 91% 30.29 in 10.0 mi WSW 3.5 mph - N/A   Mostly Cloudy
5:54 AM 75.4 °F - 72.9 °F 92% 30.29 in 10.0 mi West 4.6 mph - N/A   Scattered Clouds
6:14 AM 74.7 °F - 72.5 °F 93% 30.30 in 10.0 mi WSW 3.5 mph - N/A   Clear
6:34 AM 74.8 °F - 72.5 °F 92% 30.30 in 10.0 mi WSW 3.5 mph - N/A   Clear
6:54 AM 74.7 °F - 72.5 °F 93% 30.30 in 10.0 mi WSW 3.5 mph - N/A   Clear
7:14 AM 75.7 °F - 73.4 °F 92% 30.31 in 10.0 mi Calm Calm - N/A   Clear
7:34 AM 77.0 °F - 73.8 °F 90% 30.31 in 10.0 mi WSW 3.5 mph - N/A   Scattered Clouds
7:54 AM 77.5 °F - 73.4 °F 87% 30.31 in 10.0 mi Calm Calm - N/A   Mostly Cloudy
8:14 AM 78.3 °F - 73.8 °F 86% 30.32 in 10.0 mi West 4.6 mph - N/A   Overcast
8:34 AM 79.5 °F - 73.4 °F 81% 30.32 in 10.0 mi Calm Calm - N/A   Overcast
8:54 AM 80.8 °F 85.6 °F 73.4 °F 78% 30.32 in 10.0 mi West 4.6 mph - N/A   Overcast
9:14 AM 82.0 °F 88.1 °F 74.1 °F 77% 30.32 in 10.0 mi West 4.6 mph - N/A   Overcast
9:34 AM 82.4 °F 88.7 °F 74.1 °F 76% 30.32 in 10.0 mi West 5.8 mph - N/A   Overcast
9:54 AM 84.6 °F 91.7 °F 73.8 °F 70% 30.32 in 10.0 mi West 6.9 mph - N/A   Scattered Clouds
10:14 AM 86.0 °F 93.8 °F 73.8 °F 67% 30.32 in 10.0 mi West 6.9 mph - N/A   Clear
10:34 AM 86.5 °F 94.6 °F 73.8 °F 66% 30.32 in 10.0 mi WNW 4.6 mph - N/A   Clear
10:54 AM 88.2 °F 96.0 °F 73.4 °F 61% 30.32 in 10.0 mi NW 5.8 mph - N/A   Clear
11:14 AM 88.3 °F 95.9 °F 72.9 °F 60% 30.32 in 10.0 mi West 6.9 mph - N/A   Scattered Clouds
11:34 AM 88.5 °F 95.8 °F 72.5 °F 59% 30.32 in 10.0 mi SW 9.2 mph - N/A   Mostly Cloudy
11:54 AM 89.4 °F 96.3 °F 71.8 °F 56% 30.32 in 10.0 mi WSW 6.9 mph - N/A   Scattered Clouds
12:14 PM 90.5 °F 97.0 °F 71.4 °F 53% 30.31 in 10.0 mi SW 9.2 mph - N/A   Clear
12:34 PM 90.5 °F 97.0 °F 71.2 °F 53% 30.31 in 10.0 mi WSW 8.1 mph - N/A   Clear
12:54 PM 90.5 °F 97.0 °F 71.4 °F 53% 30.31 in 10.0 mi West 9.2 mph - N/A   Scattered Clouds
1:14 PM 91.6 °F 97.7 °F 70.7 °F 50% 30.30 in 10.0 mi West 5.8 mph - N/A   Scattered Clouds
1:34 PM 90.5 °F 96.5 °F 70.7 °F 52% 30.29 in 10.0 mi SW 9.2 mph - N/A   Clear
1:54 PM 91.8 °F 96.5 °F 69.1 °F 47% 30.29 in 10.0 mi SW 8.1 mph - N/A   Scattered Clouds
2:14 PM 92.8 °F 99.2 °F 70.3 °F 48% 30.29 in 10.0 mi WSW 10.4 mph - N/A   Scattered Clouds
2:34 PM 91.8 °F 96.5 °F 69.1 °F 47% 30.28 in 10.0 mi WSW 9.2 mph 16.1 mph N/A   Scattered Clouds
2:54 PM 93.2 °F 98.3 °F 69.1 °F 45% 30.28 in 10.0 mi SSW 8.1 mph - N/A   Scattered Clouds
3:14 PM 92.8 °F 98.6 °F 70.0 °F 47% 30.28 in 10.0 mi WSW 13.8 mph - N/A   Scattered Clouds
3:34 PM 93.2 °F 99.4 °F 70.3 °F 47% 30.27 in 10.0 mi WSW 8.1 mph 16.1 mph N/A   Scattered Clouds
3:54 PM 93.4 °F 99.7 °F 70.7 °F 47% 30.27 in 10.0 mi SW 11.5 mph - N/A   Clear
4:14 PM 93.4 °F 99.2 °F 69.6 °F 46% 30.27 in 10.0 mi WSW 10.4 mph - N/A   Scattered Clouds
4:34 PM 93.4 °F 99.7 °F 70.3 °F 47% 30.27 in 10.0 mi West 8.1 mph - N/A   Scattered Clouds
4:54 PM 93.4 °F 99.7 °F 70.2 °F 47% 30.27 in 10.0 mi WSW 10.4 mph - N/A   Scattered Clouds
5:14 PM 93.6 °F 99.5 °F 70.2 °F 46% 30.27 in 10.0 mi West 12.7 mph - N/A   Scattered Clouds
5:34 PM 93.2 °F 98.8 °F 69.8 °F 46% 30.27 in 10.0 mi West 9.2 mph - N/A   Scattered Clouds
5:54 PM 92.8 °F 98.6 °F 70.0 °F 47% 30.26 in 10.0 mi West 12.7 mph 17.3 mph N/A   Scattered Clouds
6:14 PM 92.1 °F 99.4 °F 71.4 °F 51% 30.26 in 10.0 mi West 10.4 mph - N/A   Clear
6:34 PM 90.9 °F 97.3 °F 71.1 °F 52% 30.26 in 10.0 mi WSW 11.5 mph 17.3 mph N/A   Clear
6:54 PM 90.3 °F 97.2 °F 71.6 °F 54% 30.26 in 10.0 mi West 11.5 mph 16.1 mph N/A   Clear
7:14 PM 90.0 °F 96.4 °F 71.2 °F 54% 30.26 in 10.0 mi WSW 10.4 mph - N/A   Clear
7:34 PM 89.6 °F 94.7 °F 70.0 °F 52% 30.26 in 10.0 mi WSW 11.5 mph - N/A   Clear
7:54 PM 88.7 °F 94.3 °F 70.7 °F 55% 30.26 in 10.0 mi WSW 8.1 mph - N/A   Clear
8:14 PM 88.3 °F 93.2 °F 70.0 °F 54% 30.26 in 10.0 mi WSW 6.9 mph - N/A   Clear
8:34 PM 87.1 °F 91.3 °F 69.1 °F 55% 30.26 in 10.0 mi WSW 6.9 mph - N/A   Clear
8:54 PM 85.5 °F 89.8 °F 69.8 °F 59% 30.27 in 10.0 mi WSW 5.8 mph - N/A   Clear
9:14 PM 84.4 °F 88.7 °F 70.0 °F 62% 30.26 in 10.0 mi WSW 5.8 mph - N/A   Clear
9:34 PM 82.9 °F 87.0 °F 70.2 °F 65% 30.27 in 10.0 mi WSW 5.8 mph - N/A   Clear
9:54 PM 82.0 °F 85.7 °F 69.8 °F 66% 30.27 in 10.0 mi WSW 5.8 mph - N/A   Clear
10:14 PM 81.1 °F 84.5 °F 69.8 °F 68% 30.27 in 10.0 mi WSW 5.8 mph - N/A   Clear
10:34 PM 80.2 °F 83.5 °F 70.0 °F 71% 30.27 in 10.0 mi WSW 6.9 mph - N/A   Clear
10:54 PM 79.9 °F - 69.8 °F 71% 30.27 in 10.0 mi WSW 6.9 mph - N/A   Clear
11:14 PM 79.2 °F - 69.4 °F 72% 30.27 in 10.0 mi West 4.6 mph - N/A   Clear
11:34 PM 78.8 °F - 69.3 °F 72% 30.27 in 10.0 mi West 4.6 mph - N/A   Clear
11:54 PM 78.6 °F - 69.1 °F 72% 30.27 in 10.0 mi WSW 4.6 mph - N/A   Clear